GFSMA_con_mlcape_024.txt.gz
CAPE
0 30 20 6 17 127 389 516 466 299 163 68 48 81 50 89 117 154 165 281 261 295 687 592 806 531 541 384 160 185 901 827 829 617 297 124 164 164 155 179 83 36 48
2 0 0 13 4 66 320 381 347 241 145 78 107 99 113 77 158 124 168 205 168 225 468 502 683 812 538 437 160 45 417 788 857 581 285 265 58 6 27 36 74 56 63
6 0 0 0 5 64 238 205 204 168 175 124 206 184 122 80 85 0 17 16 52 221 158 186 181 421 355 408 467 346 156 678 765 691 416 189 127 15 34 84 80 55 86
43 0 0 0 0 63 273 209 220 255 219 256 303 241 167 117 96 47 39 21 16 69 140 238 205 176 373 420 512 604 746 586 773 633 434 274 98 169 112 117 100 119 151
132 31 4 0 4 212 250 241 282 257 298 324 372 308 182 140 76 62 48 33 19 65 164 264 183 138 188 196 393 700 755 429 503 621 446 447 263 4 32 128 151 201 53
232 143 52 58 78 402 322 320 348 261 323 339 165 54 53 73 84 81 46 24 4 42 87 112 198 149 96 27 85 658 685 737 603 614 633 496 459 207 75 40 192 177 9
284 169 147 75 290 401 417 369 341 395 273 5 0 0 0 7 43 56 25 23 4 30 41 37 44 28 24 96 0 496 680 590 998 886 723 630 526 317 144 152 304 47 12
297 226 132 170 375 357 380 352 324 233 39 0 0 0 0 0 0 21 39 33 29 18 42 33 41 30 34 121 8 2 384 424 895 1144 734 760 610 433 201 194 246 9 0
429 392 375 378 390 359 386 323 216 59 0 0 0 0 0 0 0 0 52 67 51 32 32 20 28 50 60 57 16 0 81 402 490 1026 777 610 640 387 124 230 32 18 29
559 469 446 467 367 331 362 182 1 0 0 0 0 0 0 0 0 0 17 13 17 6 5 9 24 38 49 57 118 151 169 212 256 750 857 659 578 309 358 52 8 21 0
584 531 456 296 365 241 54 0 0 0 0 0 0 0 0 0 13 32 11 0 1 0 0 0 18 30 34 76 138 179 39 95 175 445 853 743 617 198 0 7 8 8 9
348 326 320 291 97 0 0 0 0 0 0 0 0 0 0 0 22 22 20 14 7 7 4 2 11 16 36 129 100 44 16 0 86 375 582 406 12 2 4 2 5 6 0
276 289 139 9 0 0 0 0 0 0 0 0 0 0 0 0 0 15 8 1 6 11 13 12 18 25 14 27 55 183 296 76 68 368 519 57 2 2 2 10 1 0 11
135 2 4 0 0 0 0 0 0 0 0 0 0 0 0 0 0 1 6 3 11 21 13 7 14 12 19 64 107 198 117 236 292 400 183 1 0 0 2 0 0 4 13
0 0 0 0 0 0 0 0 0 14 13 4 1 0 0 0 0 3 2 0 8 5 0 0 8 33 45 156 223 153 87 141 167 172 14 0 1 0 0 0 9 13 17
0 0 0 0 0 0 0 0 8 10 13 1 2 0 0 0 0 1 1 0 0 0 0 0 1 46 114 118 182 60 21 41 33 1 1 0 0 12 4 0 0 0 9
0 0 0 0 0 0 0 0 1 5 7 0 1 3 31 7 0 0 3 0 0 0 0 2 4 25 0 10 15 1 2 3 3 0 1 0 2 0 3 0 0 1 0
0 0 0 0 0 0 0 0 4 22 2 0 10 0 60 39 4 9 15 17 3 0 0 1 2 2 2 1 2 2 3 3 2 0 0 0 7 8 1 12 1 0 0
0 0 0 0 3 0 0 11 23 45 7 1 13 30 75 41 14 12 12 6 0 0 0 0 3 3 2 3 3 3 3 2 2 0 12 9 4 0 0 0 0 1 0
0 0 4 5 0 8 30 51 49 28 20 14 33 29 44 32 14 7 4 6 0 2 1 2 3 3 2 2 1 1 3 3 6 2 3 0 0 0 0 0 0 0 0
0 16 20 0 0 0 1 11 10 20 24 12 35 29 24 19 4 0 0 0 2 1 2 4 4 3 2 2 2 2 2 2 1 2 0 0 0 0 0 0 0 0 0
2 30 16 0 0 0 0 0 6 29 10 12 13 10 2 1 0 0 0 0 1 1 2 2 3 3 3 2 2 2 2 2 1 2 0 0 0 0 0 0 0 0 0
25 25 2 0 0 0 0 4 0 10 10 15 6 2 0 0 0 0 0 0 0 0 0 1 2 2 2 1 2 2 2 1 0 1 0 0 0 0 0 0 0 0 0
16 19 0 0 0 0 0 0 1 5 4 1 1 0 0 0 0 0 1 0 0 0 0 1 0 1 1 3 2 1 0 1 0 0 0 0 0 0 0 0 0 0 0
10 12 0 0 0 0 0 0 1 3 2 1 1 1 0 1 0 0 0 0 0 0 0 0 0 0 0 0 0 0 0 0 1 0 0 0 0 0 0 0 0 0 0
8 0 0 0 0 0 0 0 1 1 0 0 0 0 0 0 0 0 1 0 0 0 1 0 0 0 0 0 0 0 0 0 0 0 0 0 0 0 0 0 0 0 0

GFSMA_con_mlcape_030.txt.gz
CAPE
289 289 180 169 254 224 337 765 757 919 1045 948 690 537 477 449 503 482 435 474 287 419 467 806 883 741 733 685 424 349 341 293 958 765 529 10 256 285 188 208 127 317 142
368 253 278 260 264 321 257 532 812 908 1025 810 804 759 664 563 599 603 553 651 323 226 279 646 830 892 783 794 682 492 254 243 805 960 605 331 361 152 142 200 66 4 35
350 339 272 280 186 261 383 352 725 1197 871 796 778 879 861 722 720 763 775 653 675 325 123 462 739 804 865 1005 914 539 227 306 891 816 511 452 271 289 205 138 126 34 17
617 551 243 307 133 260 333 215 844 623 773 750 864 769 940 699 709 820 849 766 701 651 411 299 353 664 886 1052 1064 991 518 267 525 723 567 546 307 136 87 32 79 129 29
874 556 452 291 399 256 244 369 349 550 677 1108 935 973 990 655 577 647 740 743 822 810 672 544 271 210 331 803 887 848 551 437 425 617 561 576 349 176 145 93 39 112 111
964 836 620 422 457 249 245 212 400 678 1210 843 983 622 585 583 449 534 611 610 669 748 840 658 606 155 133 171 470 394 612 546 521 560 784 675 212 101 186 71 77 171 64
942 951 763 656 539 273 205 450 630 1048 809 1118 930 422 325 370 539 491 565 588 615 683 707 697 588 626 237 154 102 218 562 982 353 530 637 718 527 350 0 115 174 179 4
1010 997 951 871 712 344 355 684 904 945 1140 998 734 484 68 159 422 427 472 485 502 606 669 598 601 647 515 163 167 59 649 1006 591 703 586 592 487 417 224 154 163 30 8
1101 1120 1227 1092 837 418 569 738 1389 863 782 865 811 351 68 26 157 277 432 528 552 777 743 580 485 622 730 580 540 309 202 765 671 997 640 636 503 421 251 120 86 9 7
1194 1095 1045 1154 950 381 599 1309 1023 828 1076 723 395 176 145 91 13 173 424 627 621 671 761 585 546 396 266 489 544 518 0 317 538 493 682 711 598 424 248 44 3 1 0
1081 1155 1199 954 686 692 1497 941 1057 1102 947 334 137 118 81 75 141 124 221 512 492 594 586 658 622 269 10 336 675 554 154 16 644 253 647 696 512 425 32 3 0 0 2
1080 1182 1070 1116 1227 1312 1304 1082 936 911 530 119 64 57 88 141 71 210 302 388 355 407 387 399 725 503 292 442 490 347 128 83 432 263 580 708 450 177 9 1 0 4 11
1308 1353 1396 1456 1442 1268 1069 929 816 363 300 125 183 117 163 102 68 404 384 267 223 88 38 77 290 640 510 533 253 375 146 23 226 252 553 489 439 75 4 2 7 9 13
1512 1506 1481 1373 1275 1250 941 594 244 142 174 280 325 276 245 267 46 322 352 156 77 17 56 10 322 389 589 442 538 116 129 1 125 249 385 342 110 7 6 3 0 3 1
1390 1324 1310 1232 948 571 367 365 42 176 267 433 457 423 465 389 66 357 22 1 7 3 18 136 434 672 613 420 258 421 725 0 45 119 75 19 2 0 0 0 0 2 0
979 1072 910 604 305 175 183 288 140 332 453 508 441 446 482 383 159 13 20 3 0 67 8 416 479 514 589 578 348 755 673 11 0 1 0 0 0 0 0 0 0 1 15
776 532 314 194 60 88 214 435 493 446 415 549 357 360 370 420 160 57 66 230 290 156 207 310 340 478 504 604 689 595 318 135 1 0 0 0 0 0 0 0 2 17 8
221 97 14 5 27 184 327 292 278 258 300 122 305 234 254 370 342 303 353 352 320 339 338 289 2 0 128 298 186 97 75 4 3 1 0 0 0 0 0 0 3 0 0
18 0 10 43 48 126 313 402 352 239 25 176 315 241 184 335 456 528 638 635 562 503 409 43 1 2 2 0 0 2 3 3 3 0 0 0 0 0 0 0 0 0 0
10 21 39 39 113 267 388 530 145 404 398 349 349 325 291 401 424 573 667 625 554 493 315 7 1 3 2 3 2 1 3 3 2 3 1 0 0 0 0 0 0 0 0
10 39 77 135 293 453 114 342 389 419 40 298 430 420 401 393 394 513 545 636 534 403 28 3 1 2 3 3 2 3 3 3 2 2 5 6 1 0 0 0 0 0 0
76 100 204 98 253 34 0 0 40 69 331 273 410 386 416 83 17 4 25 220 370 232 21 4 3 2 3 1 3 3 2 2 3 9 1 0 1 0 0 8 0 0 0
63 172 173 42 243 288 0 0 0 33 93 123 108 107 95 38 16 3 0 0 3 2 14 5 1 4 3 3 2 3 2 1 2 2 1 0 0 0 0 0 0 0 0
92 162 178 244 380 11 0 0 11 48 15 15 52 72 84 14 18 21 12 7 6 5 3 5 2 2 2 2 2 1 2 1 2 1 0 0 0 8 3 0 0 0 0
87 113 170 310 324 48 0 0 9 8 2 1 0 10 23 15 0 2 11 6 2 0 0 0 0 0 0 0 0 0 1 2 2 2 0 0 0 1 7 0 0 0 0
62 88 179 251 10 55 0 0 5 4 1 2 3 2 0 0 0 1 5 3 1 2 0 0 0 0 0 0 0 0 0 1 2 4 8 3 1 0 3 0 0 0 0

GFSMA_con_mlcape_033.txt.gz
CAPE
157 144 218 159 300 168 259 521 764 1055 1261 1068 848 696 617 535 523 513 499 520 274 153 389 718 742 760 809 825 636 359 304 402 445 718 472 390 98 274 122 62 51 18 52
319 290 387 336 267 329 333 428 727 931 1110 1099 1018 795 750 665 674 699 566 692 411 177 215 514 888 1029 971 880 811 489 367 329 335 767 894 526 239 261 184 191 125 76 18
620 649 590 489 317 425 507 624 867 886 1048 1176 868 955 935 978 856 822 829 577 685 372 199 191 532 930 1043 919 1032 798 483 219 277 761 995 601 271 336 167 152 173 70 30
1169 1098 615 610 540 501 601 526 573 554 1137 845 805 923 1146 983 891 938 639 609 866 718 493 315 246 644 948 1017 1105 1066 520 291 267 641 887 641 481 323 287 205 198 142 63
1408 1260 918 687 782 575 487 542 467 772 757 791 759 1105 1344 1132 793 717 640 681 533 769 789 545 303 242 612 1131 1102 1149 906 313 326 580 763 646 623 363 216 176 141 106 136
1286 1606 1141 986 855 641 507 492 477 681 597 682 873 1229 1022 1070 882 350 483 470 646 810 912 802 400 375 304 504 986 1118 1032 556 327 399 874 789 659 404 240 210 114 163 156
1422 1608 1253 1200 1070 691 655 630 646 726 842 1006 993 1056 939 677 630 544 342 555 586 709 820 817 654 842 259 271 471 681 616 748 492 409 970 779 566 410 278 87 148 158 3
1439 1486 1351 1248 1097 784 871 849 667 648 654 1415 1210 780 373 57 441 578 358 486 678 589 527 745 733 844 564 197 286 413 537 802 535 511 704 865 614 410 283 213 205 26 3
1460 1396 1324 1445 1420 956 763 868 874 703 1074 1353 1165 732 109 181 397 491 504 394 612 625 637 673 677 712 372 77 266 103 234 907 345 0 682 765 618 426 148 242 131 44 4
1214 1340 1379 1335 1472 1138 870 858 869 987 1353 1136 891 611 508 244 132 202 472 573 646 703 882 711 689 643 436 37 415 454 48 642 724 806 696 622 586 407 287 247 147 5 6
1452 1280 1418 1351 1287 1136 793 994 1479 1343 1065 864 481 443 165 107 144 122 73 541 724 726 777 729 489 514 644 657 725 300 0 255 461 443 799 573 574 413 373 141 14 6 0
1335 1177 1250 1411 1266 928 1535 1616 1356 1281 1059 736 218 200 153 86 207 247 143 354 487 647 479 215 618 422 303 169 241 170 10 0 328 256 636 681 601 560 238 22 7 1 5
1150 1285 1420 1225 1190 1682 1612 1370 1215 1099 941 459 292 139 49 119 101 131 418 519 392 352 437 239 522 516 2 30 156 309 82 0 198 194 516 668 535 255 22 9 7 8 15
1500 1425 1567 1805 1698 1473 1136 1176 1016 764 413 319 298 231 309 234 233 217 447 532 311 303 349 302 259 188 132 26 320 142 120 0 88 118 380 475 278 28 4 5 3 14 9
1818 1707 1681 1511 1302 1065 1094 1117 476 303 235 305 478 475 405 375 386 245 321 210 261 99 58 125 4 26 361 293 79 171 178 0 26 168 309 252 88 1 4 4 0 5 1
1700 1644 1367 1204 1020 886 750 484 153 210 277 487 486 610 471 521 402 387 12 18 93 46 76 5 58 202 138 278 46 533 334 0 4 118 127 28 0 0 0 0 0 1 6
1098 959 850 791 652 415 256 272 458 374 344 635 573 434 418 613 262 143 63 24 0 14 29 92 386 556 422 406 651 625 207 180 0 0 1 0 0 0 0 1 0 1 9
696 594 455 310 144 99 239 394 429 350 396 440 515 277 252 377 447 225 170 259 68 249 12 171 164 232 404 441 391 352 191 4 2 0 0 0 0 0 0 0 0 0 0
261 157 61 19 30 112 284 462 438 418 468 257 211 266 193 404 432 484 590 713 509 289 300 278 1 5 98 67 2 6 4 2 3 0 0 0 0 0 0 0 0 0 0
61 49 56 48 44 123 280 508 461 233 371 62 485 352 173 379 496 620 727 774 696 582 271 23 0 1 3 3 3 0 1 3 3 1 1 0 0 0 0 0 0 0 0
50 30 23 149 224 504 271 543 583 517 392 318 358 455 418 414 388 608 604 604 642 422 92 0 1 1 1 1 0 3 2 3 2 2 1 2 0 0 0 0 0 0 0
19 58 33 165 518 0 0 0 250 408 154 99 384 405 453 171 183 102 65 383 555 369 10 2 3 0 3 2 3 3 2 1 2 4 3 7 1 8 4 0 0 0 0
64 179 136 158 474 0 0 0 3 237 351 279 440 495 398 216 176 79 13 86 52 87 54 4 3 3 3 3 3 4 2 1 1 1 1 1 1 0 0 0 0 0 0
276 443 309 463 425 0 0 0 9 88 78 115 142 234 260 106 143 69 146 206 44 36 7 3 2 1 2 3 1 1 1 2 3 1 0 0 0 0 0 0 0 0 0
309 388 368 462 412 2 0 0 23 9 1 2 27 61 48 31 0 4 39 12 1 0 0 0 0 0 0 0 0 1 2 1 2 1 0 0 0 0 0 1 0 0 0
222 215 342 361 54 3 0 0 7 0 1 0 0 0 0 0 0 0 0 0 1 1 0 0 0 0 0 0 0 0 0 2 1 1 0 0 7 3 9 6 0 0 0

GFSMA_con_mlcape_036.txt.gz
CAPE
20 30 83 87 84 158 169 117 408 552 877 754 1095 899 667 653 695 627 827 520 293 165 109 101 399 795 803 675 740 656 490 428 629 761 593 540 351 380 217 167 73 18 61
225 131 80 169 282 217 301 224 519 616 950 1322 1370 1110 949 926 791 887 730 789 490 339 256 318 469 791 855 838 591 605 388 412 537 596 733 521 404 360 453 154 75 41 8
322 189 292 206 162 500 339 337 421 1066 1464 1394 1042 1302 966 1006 974 837 932 881 651 502 291 186 371 528 862 1091 1037 745 508 372 551 457 576 785 533 377 326 165 190 109 61
626 687 427 538 506 309 468 740 511 641 815 926 1332 925 1349 1204 1082 861 673 850 846 601 316 297 299 336 510 963 1002 1125 778 409 400 504 835 814 674 435 357 279 209 185 62
1218 727 985 847 651 681 590 484 656 792 863 1157 1045 1159 1290 1291 1175 1064 1108 901 670 734 709 586 448 264 307 664 1005 1111 949 527 400 529 1030 1007 570 452 238 200 201 153 82
1868 1364 1206 1105 1204 679 668 780 599 509 579 1003 840 948 1157 1185 1004 961 776 706 589 464 429 643 464 452 232 291 1092 1131 1241 723 385 525 859 872 620 411 268 311 283 197 156
1876 1806 1448 1498 970 1111 752 615 652 497 837 770 978 904 1093 1109 955 1049 884 569 587 582 554 477 567 400 353 184 499 1058 1189 1163 584 501 720 864 665 437 345 354 290 228 102
1835 1801 1816 1327 1528 1160 849 815 612 610 820 807 656 935 717 782 814 1043 778 495 440 412 575 631 551 447 365 131 221 886 918 942 920 727 647 845 725 539 440 361 343 60 4
1958 1809 1802 1561 1513 1115 1010 829 956 616 636 842 1138 966 715 313 220 504 623 508 421 602 533 429 384 348 194 137 241 386 584 583 670 968 621 823 689 483 387 318 182 16 3
1749 1811 1776 1489 1738 1254 1140 1012 897 759 600 1022 1241 970 715 576 297 248 370 355 427 568 585 521 335 378 148 23 25 64 88 515 672 332 591 778 888 745 537 358 108 40 5
1761 1564 1516 1348 1580 1337 1021 1053 975 731 694 1304 1013 805 630 352 206 47 52 98 294 314 661 510 248 211 137 54 0 6 147 424 737 154 123 780 897 729 500 327 151 6 6
1523 1117 1332 1254 1375 1221 1282 968 862 891 1316 1015 645 471 418 249 104 181 131 134 113 160 333 256 285 240 246 102 0 1 174 241 504 759 618 620 762 555 602 414 48 8 10
1345 1154 1101 1183 1206 1178 1344 1121 1347 1250 869 652 563 344 328 121 73 89 24 151 9 138 181 130 154 170 228 71 82 65 2 53 233 279 488 660 502 578 503 148 26 8 9
1169 1135 1207 1357 1362 1184 1627 1378 1009 758 778 605 483 241 293 100 50 55 21 163 5 95 241 81 166 104 7 1 0 63 51 18 176 181 364 487 454 465 192 23 10 1 5
1129 1111 1642 1337 1614 1453 1166 888 809 606 632 374 321 439 268 415 308 42 186 53 18 61 72 95 69 60 0 0 24 168 123 0 144 157 317 414 268 105 0 1 2 1 3
1696 1364 1744 1483 1225 1060 996 798 687 348 400 279 377 260 266 265 371 34 132 19 85 42 22 48 16 59 47 2 79 240 38 5 25 127 220 154 37 1 0 2 2 0 0
1758 1583 1357 1117 947 840 696 475 374 388 348 347 88 14 263 332 110 142 23 19 23 4 39 0 37 41 101 120 187 106 79 0 0 0 72 10 0 0 0 0 0 0 0
1417 1259 1016 632 598 501 387 351 229 434 293 301 86 24 365 245 68 137 51 3 0 0 4 14 132 63 111 218 346 240 95 0 0 0 0 0 0 0 0 0 0 0 0
794 518 392 331 183 184 180 279 410 348 256 312 106 64 186 172 181 104 143 88 41 9 2 11 47 62 119 89 69 21 3 2 0 0 0 0 0 0 0 0 0 0 0
219 146 101 76 158 318 326 485 413 249 385 220 283 112 121 168 167 178 212 250 89 24 16 19 3 0 8 1 1 2 1 2 2 2 1 0 0 0 0 0 0 0 0
81 84 194 157 346 164 324 449 561 540 172 109 45 87 139 212 240 367 374 380 211 104 21 0 2 0 2 1 2 3 2 2 2 2 1 1 0 0 0 0 0 0 0
113 89 89 297 149 0 0 0 128 309 106 35 7 150 75 23 17 52 84 302 273 79 9 0 0 0 1 0 1 1 1 0 0 2 1 2 0 1 0 0 0 0 0
29 8 146 205 258 0 0 0 20 300 109 144 289 177 219 204 149 42 25 92 156 18 0 0 2 2 0 0 0 2 1 0 1 2 0 0 1 0 0 0 0 0 0
158 183 244 314 7 0 0 0 53 181 286 162 309 258 200 170 221 86 242 152 35 3 1 1 0 0 0 1 0 1 1 1 2 2 0 1 1 0 0 0 0 0 0
183 359 344 419 1 0 0 3 30 15 40 40 19 61 88 42 2 16 59 5 0 0 0 0 0 0 0 0 0 0 2 2 3 1 0 0 1 0 0 0 0 0 0
315 223 289 309 0 0 0 0 0 0 0 0 3 0 0 0 0 2 1 0 0 0 0 0 0 0 0 0 0 0 0 2 1 1 0 0 0 0 0 0 0 0 0